| time (UTC) | temp F | wind direction | speed MPH | gust MPH | rain 1hr in | rain 24hr in | rain mn in | humidity % | barometer mb |
| 20260505140645 | 81 | 11 | 0.0 | 1.0 | 0.00 | 0.28 | 0.28 | 88 | 1010.0 |
| 20260505140142 | 81 | 11 | 0.0 | 1.0 | 0.00 | 0.28 | 0.28 | 88 | 1010.0 |
| 20260505130106 | 78 | 283 | 2.0 | 2.0 | 0.00 | 0.28 | 0.28 | 90 | 1009.8 |
| 20260505124555 | 78 | 304 | 1.0 | 6.0 | 0.00 | 0.28 | 0.28 | 90 | 1009.7 |
| 20260505124052 | 78 | 304 | 1.0 | 6.0 | 0.00 | 0.28 | 0.28 | 90 | 1009.7 |
| 20260505123548 | 78 | 282 | 3.0 | 6.0 | 0.00 | 0.28 | 0.28 | 90 | 1009.7 |
| 20260505123045 | 77 | 275 | 3.0 | 4.0 | 0.00 | 0.28 | 0.28 | 91 | 1009.5 |
| 20260505122542 | 77 | 321 | 2.0 | 6.0 | 0.00 | 0.28 | 0.28 | 91 | 1009.8 |
| 20260505122038 | 77 | 331 | 4.0 | 4.0 | 0.00 | 0.28 | 0.28 | 91 | 1009.7 |
| 20260505121534 | 77 | 274 | 7.0 | 13.0 | 0.00 | 0.28 | 0.28 | 91 | 1009.6 |
| 20260505121031 | 77 | 289 | 4.0 | 8.0 | 0.07 | 0.28 | 0.28 | 91 | 1009.6 |
| 20260505120529 | 77 | 321 | 8.0 | 10.0 | 0.07 | 0.28 | 0.28 | 91 | 1009.3 |
| 20260505120024 | 77 | 324 | 9.0 | 13.0 | 0.00 | 0.27 | 0.27 | 91 | 1009.1 |
| 20260505115519 | 78 | 333 | 12.0 | 15.0 | 0.00 | 0.27 | 0.27 | 91 | 1009.1 |
| 20260505115017 | 78 | 307 | 8.0 | 14.0 | 0.00 | 0.27 | 0.27 | 91 | 1009.5 |
| 20260505114513 | 79 | 344 | 14.0 | 21.0 | 0.00 | 0.27 | 0.27 | 91 | 1009.3 |
| 20260505114010 | 79 | 326 | 11.0 | 14.0 | 0.00 | 0.27 | 0.27 | 91 | 1009.1 |
| 20260505113506 | 79 | 8 | 2.0 | 6.0 | 0.47 | 0.27 | 0.27 | 91 | 1008.8 |
| 20260505113003 | 78 | 359 | 8.0 | 14.0 | 0.52 | 0.27 | 0.27 | 91 | 1009.0 |
| 20260505112459 | 80 | 16 | 6.0 | 8.0 | 0.00 | 0.18 | 0.18 | 91 | 1008.9 |
| 20260505111956 | 80 | 335 | 2.0 | 6.0 | 0.00 | 0.18 | 0.18 | 91 | 1008.0 |
| 20260505111455 | 79 | 317 | 4.0 | 8.0 | 0.07 | 0.18 | 0.18 | 90 | 1007.9 |
| 20260505110952 | 80 | 287 | 7.0 | 9.0 | 0.78 | 0.18 | 0.18 | 90 | 1008.2 |
| 20260505110449 | 80 | 17 | 10.0 | 13.0 | 0.83 | 0.16 | 0.16 | 89 | 1008.2 |
| 20260505101920 | 88 | 163 | 8.0 | 22.0 | 0.00 | 0.00 | 0.00 | 74 | 1006.8 |
| 20260505101415 | 89 | 156 | 11.0 | 14.0 | 0.00 | 0.00 | 0.00 | 72 | 1006.9 |
| 20260505100911 | 89 | 162 | 8.0 | 13.0 | 0.00 | 0.00 | 0.00 | 73 | 1006.7 |
| 20260505100408 | 89 | 119 | 14.0 | 16.0 | 0.00 | 0.00 | 0.00 | 73 | 1006.6 |
| 20260505095903 | 89 | 129 | 14.0 | 18.0 | 0.00 | 0.00 | 0.00 | 72 | 1006.7 |
| 20260505095401 | 89 | 155 | 8.0 | 14.0 | 0.00 | 0.00 | 0.00 | 72 | 1006.7 |
| 20260505094857 | 90 | 155 | 17.0 | 21.0 | 0.00 | 0.00 | 0.00 | 71 | 1006.3 |
| 20260505094354 | 90 | 137 | 6.0 | 13.0 | 0.00 | 0.00 | 0.00 | 70 | 1006.5 |
| 20260505093850 | 90 | 157 | 6.0 | 13.0 | 0.00 | 0.00 | 0.00 | 70 | 1006.3 |
| 20260505093347 | 91 | 128 | 17.0 | 19.0 | 0.00 | 0.00 | 0.00 | 69 | 1006.1 |
| 20260505092844 | 91 | 175 | 11.0 | 16.0 | 0.00 | 0.00 | 0.00 | 69 | 1006.2 |
| 20260505092343 | 91 | 152 | 11.0 | 15.0 | 0.00 | 0.00 | 0.00 | 68 | 1006.1 |
| 20260505091839 | 91 | 65 | 2.0 | 17.0 | 0.00 | 0.00 | 0.00 | 68 | 1006.0 |
| 20260505091338 | 92 | 213 | 13.0 | 17.0 | 0.00 | 0.00 | 0.00 | 67 | 1006.0 |
| 20260505090835 | 92 | 52 | 8.0 | 14.0 | 0.00 | 0.00 | 0.00 | 67 | 1006.1 |
| 20260505090333 | 92 | 173 | 8.0 | 14.0 | 0.00 | 0.00 | 0.00 | 66 | 1006.2 |
| 20260505085830 | 93 | 123 | 6.0 | 11.0 | 0.00 | 0.00 | 0.00 | 66 | 1006.2 |
| 20260505085328 | 92 | 168 | 5.0 | 14.0 | 0.00 | 0.00 | 0.00 | 67 | 1006.0 |
| 20260505084826 | 93 | 109 | 9.0 | 11.0 | 0.00 | 0.00 | 0.00 | 65 | 1006.0 |
| 20260505084324 | 93 | 164 | 5.0 | 14.0 | 0.00 | 0.00 | 0.00 | 65 | 1005.8 |
| 20260505083821 | 93 | 124 | 6.0 | 13.0 | 0.00 | 0.00 | 0.00 | 65 | 1006.0 |
| 20260505083318 | 92 | 77 | 7.0 | 13.0 | 0.00 | 0.00 | 0.00 | 66 | 1006.0 |
| 20260505082814 | 93 | 148 | 9.0 | 14.0 | 0.00 | 0.00 | 0.00 | 64 | 1006.1 |
| 20260505082311 | 92 | 118 | 10.0 | 14.0 | 0.00 | 0.00 | 0.00 | 65 | 1005.9 |
| 20260505081808 | 93 | 129 | 8.0 | 14.0 | 0.00 | 0.00 | 0.00 | 64 | 1005.9 |
| 20260505081304 | 93 | 119 | 6.0 | 13.0 | 0.00 | 0.00 | 0.00 | 64 | 1006.1 |
| 20260505080801 | 93 | 141 | 7.0 | 14.0 | 0.00 | 0.00 | 0.00 | 64 | 1005.9 |
| 20260505080257 | 93 | 133 | 8.0 | 15.0 | 0.00 | 0.00 | 0.00 | 65 | 1006.2 |
| 20260505075752 | 93 | 134 | 11.0 | 14.0 | 0.00 | 0.00 | 0.00 | 64 | 1006.2 |
| 20260505075250 | 92 | 137 | 12.0 | 15.0 | 0.00 | 0.00 | 0.00 | 65 | 1006.2 |
| 20260505074747 | 93 | 168 | 9.0 | 15.0 | 0.00 | 0.00 | 0.00 | 65 | 1006.3 |
| 20260505074244 | 94 | 123 | 10.0 | 15.0 | 0.00 | 0.00 | 0.00 | 63 | 1006.4 |
| 20260505073742 | 93 | 212 | 5.0 | 7.0 | 0.00 | 0.00 | 0.00 | 64 | 1006.4 |
| 20260505073239 | 92 | 178 | 3.0 | 9.0 | 0.00 | 0.00 | 0.00 | 64 | 1006.3 |
| 20260505072736 | 91 | 154 | 5.0 | 9.0 | 0.00 | 0.00 | 0.00 | 65 | 1006.4 |
| 20260505072232 | 90 | 184 | 6.0 | 8.0 | 0.00 | 0.00 | 0.00 | 66 | 1006.7 |
| 20260505071727 | 90 | 153 | 7.0 | 11.0 | 0.00 | 0.00 | 0.00 | 68 | 1006.8 |
| 20260505071225 | 89 | 121 | 8.0 | 10.0 | 0.00 | 0.00 | 0.00 | 69 | 1007.0 |
| 20260505070722 | 89 | 196 | 6.0 | 10.0 | 0.00 | 0.00 | 0.00 | 69 | 1006.9 |
| 20260505070218 | 90 | 119 | 11.0 | 16.0 | 0.00 | 0.00 | 0.00 | 70 | 1007.0 |
| 20260505065714 | 91 | 130 | 9.0 | 15.0 | 0.00 | 0.00 | 0.00 | 69 | 1007.3 |
| 20260505065210 | 92 | 128 | 5.0 | 10.0 | 0.00 | 0.00 | 0.00 | 67 | 1007.2 |
| 20260505064708 | 93 | 79 | 1.0 | 8.0 | 0.00 | 0.00 | 0.00 | 61 | 1007.3 |
| 20260505064206 | 94 | 90 | 4.0 | 6.0 | 0.00 | 0.00 | 0.00 | 60 | 1007.5 |
| 20260505063702 | 95 | 93 | 5.0 | 8.0 | 0.00 | 0.00 | 0.00 | 59 | 1007.4 |
| 20260505063159 | 94 | 42 | 2.0 | 7.0 | 0.00 | 0.00 | 0.00 | 59 | 1007.6 |
| 20260505062655 | 94 | 69 | 2.0 | 3.0 | 0.00 | 0.00 | 0.00 | 59 | 1007.7 |
| 20260505062153 | 94 | 65 | 2.0 | 2.0 | 0.00 | 0.00 | 0.00 | 59 | 1007.9 |
| 20260505061650 | 93 | 351 | 2.0 | 8.0 | 0.00 | 0.00 | 0.00 | 60 | 1007.9 |
| 20260505061148 | 94 | 21 | 4.0 | 4.0 | 0.00 | 0.00 | 0.00 | 59 | 1008.0 |
| 20260505060645 | 94 | 46 | 3.0 | 3.0 | 0.00 | 0.00 | 0.00 | 60 | 1008.1 |
| 20260505060142 | 95 | 324 | 3.0 | 4.0 | 0.00 | 0.00 | 0.00 | 59 | 1008.1 |
| 20260505055637 | 95 | 249 | 1.0 | 2.0 | 0.00 | 0.00 | 0.00 | 59 | 1008.3 |
| 20260505055134 | 95 | 356 | 2.0 | 3.0 | 0.00 | 0.00 | 0.00 | 60 | 1008.4 |
| 20260505054631 | 95 | 91 | 4.0 | 4.0 | 0.00 | 0.00 | 0.00 | 59 | 1008.4 |
| 20260505054129 | 94 | 119 | 2.0 | 8.0 | 0.00 | 0.00 | 0.00 | 61 | 1008.4 |
| 20260505053626 | 94 | 84 | 8.0 | 13.0 | 0.00 | 0.00 | 0.00 | 60 | 1008.6 |
| 20260505053122 | 95 | 131 | 4.0 | 10.0 | 0.00 | 0.00 | 0.00 | 60 | 1008.6 |
| 20260505052619 | 94 | 7 | 6.0 | 8.0 | 0.00 | 0.00 | 0.00 | 60 | 1008.6 |
| 20260505052117 | 94 | 106 | 2.0 | 9.0 | 0.00 | 0.00 | 0.00 | 60 | 1008.8 |
| 20260505051614 | 94 | 65 | 2.0 | 4.0 | 0.00 | 0.00 | 0.00 | 61 | 1009.0 |
| 20260505051112 | 94 | 100 | 3.0 | 9.0 | 0.00 | 0.00 | 0.00 | 60 | 1009.0 |
| 20260505050609 | 94 | 65 | 2.0 | 3.0 | 0.00 | 0.00 | 0.00 | 60 | 1009.0 |
| 20260505050108 | 93 | 62 | 2.0 | 8.0 | 0.00 | 0.00 | 0.00 | 61 | 1009.1 |
| 20260505041537 | 93 | 47 | 11.0 | 16.0 | 0.00 | 0.00 | 0.00 | 62 | 1009.8 |
| 20260505041035 | 93 | 40 | 2.0 | 7.0 | 0.00 | 0.00 | 0.00 | 62 | 1010.1 |
| 20260505040532 | 93 | 60 | 3.0 | 6.0 | 0.00 | 0.00 | 0.00 | 62 | 1009.9 |
| 20260505040029 | 92 | 64 | 9.0 | 10.0 | 0.00 | 0.00 | 0.00 | 64 | 1010.1 |
| 20260505035525 | 91 | 29 | 1.0 | 6.0 | 0.00 | 0.00 | 0.00 | 64 | 1010.1 |
| 20260505035022 | 91 | 52 | 6.0 | 8.0 | 0.00 | 0.00 | 0.00 | 64 | 1010.4 |
| 20260505034518 | 92 | 79 | 7.0 | 9.0 | 0.00 | 0.00 | 0.00 | 63 | 1010.3 |
| 20260505034015 | 91 | 18 | 0.0 | 6.0 | 0.00 | 0.00 | 0.00 | 64 | 1010.3 |
| 20260505033512 | 93 | 45 | 3.0 | 4.0 | 0.00 | 0.00 | 0.00 | 63 | 1010.4 |
| 20260505033010 | 92 | 353 | 2.0 | 6.0 | 0.00 | 0.00 | 0.00 | 63 | 1010.4 |
| 20260505032508 | 94 | 303 | 5.0 | 6.0 | 0.00 | 0.00 | 0.00 | 61 | 1010.5 |
| 20260505032004 | 93 | 350 | 2.0 | 7.0 | 0.00 | 0.00 | 0.00 | 61 | 1010.6 |
| 20260505031501 | 93 | 38 | 1.0 | 6.0 | 0.00 | 0.00 | 0.00 | 63 | 1010.7 |
| 20260505030958 | 91 | 34 | 3.0 | 6.0 | 0.00 | 0.00 | 0.00 | 65 | 1010.7 |
| 20260505030454 | 92 | 5 | 5.0 | 8.0 | 0.00 | 0.00 | 0.00 | 63 | 1010.7 |
| 20260505025949 | 91 | 81 | 4.0 | 7.0 | 0.00 | 0.00 | 0.00 | 65 | 1010.7 |
| 20260505025447 | 91 | 44 | 5.0 | 8.0 | 0.00 | 0.00 | 0.00 | 65 | 1010.8 |
| 20260505024946 | 91 | 109 | 2.0 | 7.0 | 0.00 | 0.00 | 0.00 | 66 | 1010.4 |
| 20260505024442 | 90 | 65 | 1.0 | 4.0 | 0.00 | 0.00 | 0.00 | 66 | 1010.6 |
| 20260505023939 | 91 | 31 | 4.0 | 4.0 | 0.00 | 0.00 | 0.00 | 67 | 1010.7 |
| 20260505023436 | 90 | 58 | 1.0 | 11.0 | 0.00 | 0.00 | 0.00 | 69 | 1010.7 |
| 20260505022933 | 91 | 155 | 7.0 | 10.0 | 0.00 | 0.00 | 0.00 | 67 | 1010.6 |
| 20260505022431 | 90 | 60 | 4.0 | 7.0 | 0.00 | 0.00 | 0.00 | 67 | 1010.6 |
| 20260505021928 | 89 | 36 | 2.0 | 6.0 | 0.00 | 0.00 | 0.00 | 68 | 1010.9 |
| 20260505021425 | 90 | 110 | 4.0 | 8.0 | 0.00 | 0.00 | 0.00 | 69 | 1010.7 |
| 20260505020920 | 89 | 96 | 3.0 | 9.0 | 0.00 | 0.00 | 0.00 | 69 | 1010.7 |
| 20260505020416 | 89 | 83 | 5.0 | 9.0 | 0.00 | 0.00 | 0.00 | 70 | 1010.5 |
| 20260505015913 | 89 | 35 | 2.0 | 9.0 | 0.00 | 0.00 | 0.00 | 71 | 1010.7 |
| 20260505015410 | 89 | 106 | 8.0 | 10.0 | 0.00 | 0.00 | 0.00 | 69 | 1010.7 |
| 20260505014907 | 88 | 28 | 6.0 | 8.0 | 0.00 | 0.00 | 0.00 | 72 | 1010.6 |
| 20260505014404 | 88 | 68 | 7.0 | 9.0 | 0.00 | 0.00 | 0.00 | 71 | 1010.6 |
| 20260505013901 | 89 | 141 | 6.0 | 11.0 | 0.00 | 0.00 | 0.00 | 71 | 1010.7 |
| 20260505013358 | 89 | 30 | 2.0 | 4.0 | 0.00 | 0.00 | 0.00 | 71 | 1010.8 |
| 20260505012856 | 88 | 102 | 4.0 | 10.0 | 0.00 | 0.00 | 0.00 | 72 | 1010.8 |
| 20260505012354 | 87 | 77 | 4.0 | 8.0 | 0.00 | 0.00 | 0.00 | 73 | 1010.9 |
| 20260505011850 | 88 | 44 | 5.0 | 8.0 | 0.00 | 0.00 | 0.00 | 72 | 1010.9 |
| 20260505011347 | 87 | 27 | 8.0 | 11.0 | 0.00 | 0.00 | 0.00 | 74 | 1010.6 |
| 20260505010843 | 87 | 40 | 6.0 | 8.0 | 0.00 | 0.00 | 0.00 | 74 | 1010.8 |
| 20260505010338 | 88 | 54 | 8.0 | 10.0 | 0.00 | 0.00 | 0.00 | 73 | 1010.8 |
| 20260505005835 | 87 | 22 | 1.0 | 3.0 | 0.00 | 0.00 | 0.00 | 75 | 1010.9 |
| 20260505005332 | 87 | 47 | 3.0 | 7.0 | 0.00 | 0.00 | 0.00 | 76 | 1010.8 |
| 20260505004830 | 87 | 119 | 2.0 | 6.0 | 0.00 | 0.00 | 0.00 | 76 | 1010.7 |
| 20260505004326 | 87 | 1 | 8.0 | 10.0 | 0.00 | 0.00 | 0.00 | 76 | 1010.7 |
| 20260505003823 | 86 | 46 | 3.0 | 6.0 | 0.00 | 0.00 | 0.00 | 78 | 1010.8 |
| 20260505003320 | 85 | 25 | 4.0 | 6.0 | 0.00 | 0.00 | 0.00 | 79 | 1010.6 |
| 20260505002816 | 85 | 333 | 6.0 | 8.0 | 0.00 | 0.00 | 0.00 | 79 | 1010.5 |
| 20260505002314 | 85 | 359 | 4.0 | 4.0 | 0.00 | 0.00 | 0.00 | 80 | 1010.4 |
| 20260505001812 | 85 | 2 | 1.0 | 3.0 | 0.00 | 0.00 | 0.00 | 80 | 1010.3 |
| 20260505001308 | 85 | 51 | 2.0 | 4.0 | 0.00 | 0.00 | 0.00 | 81 | 1010.3 |
| 20260505000806 | 84 | 95 | 2.0 | 3.0 | 0.00 | 0.00 | 0.00 | 81 | 1010.1 |
| 20260505000303 | 84 | 45 | 3.0 | 6.0 | 0.00 | 0.00 | 0.00 | 82 | 1010.2 |
| 20260504235800 | 84 | 34 | 2.0 | 3.0 | 0.00 | 0.00 | 0.00 | 82 | 1010.2 |
| 20260504235256 | 84 | 21 | 1.0 | 6.0 | 0.00 | 0.00 | 0.00 | 82 | 1009.9 |
| 20260504234753 | 84 | 64 | 3.0 | 4.0 | 0.00 | 0.00 | 0.00 | 83 | 1009.8 |
| 20260504234251 | 84 | 131 | 3.0 | 4.0 | 0.00 | 0.00 | 0.00 | 83 | 1010.0 |
| 20260504233747 | 84 | 37 | 3.0 | 4.0 | 0.00 | 0.00 | 0.00 | 83 | 1009.6 |
| 20260504233243 | 83 | 42 | 2.0 | 9.0 | 0.00 | 0.00 | 0.00 | 84 | 1009.7 |
| 20260504232740 | 83 | 36 | 5.0 | 8.0 | 0.00 | 0.00 | 0.00 | 84 | 1009.6 |
| 20260504232237 | 83 | 26 | 4.0 | 6.0 | 0.00 | 0.00 | 0.00 | 85 | 1009.9 |
| 20260504231734 | 83 | 354 | 3.0 | 8.0 | 0.00 | 0.00 | 0.00 | 85 | 1009.7 |
| 20260504231230 | 83 | 56 | 6.0 | 7.0 | 0.00 | 0.00 | 0.00 | 85 | 1009.7 |
| 20260504230726 | 83 | 56 | 5.0 | 6.0 | 0.00 | 0.00 | 0.00 | 85 | 1009.6 |
| 20260504230225 | 83 | 26 | 4.0 | 6.0 | 0.00 | 0.00 | 0.00 | 85 | 1009.6 |
| 20260504225723 | 83 | 43 | 0.0 | 2.0 | 0.00 | 0.00 | 0.00 | 85 | 1009.6 |
| 20260504225219 | 83 | 32 | 2.0 | 3.0 | 0.00 | 0.00 | 0.00 | 85 | 1009.6 |
| 20260504224716 | 83 | 83 | 3.0 | 6.0 | 0.00 | 0.00 | 0.00 | 85 | 1009.5 |
| 20260504224214 | 83 | 58 | 2.0 | 4.0 | 0.00 | 0.00 | 0.00 | 85 | 1009.5 |
| 20260504223710 | 83 | 22 | 1.0 | 3.0 | 0.00 | 0.00 | 0.00 | 85 | 1009.5 |
| 20260504223205 | 83 | 44 | 3.0 | 4.0 | 0.00 | 0.00 | 0.00 | 84 | 1009.6 |
| 20260504222703 | 83 | 51 | 4.0 | 6.0 | 0.00 | 0.00 | 0.00 | 84 | 1009.4 |
| 20260504222159 | 83 | 55 | 3.0 | 3.0 | 0.00 | 0.00 | 0.00 | 84 | 1009.5 |
| 20260504221657 | 83 | 50 | 2.0 | 4.0 | 0.00 | 0.00 | 0.00 | 84 | 1009.5 |
| 20260504221154 | 83 | 34 | 4.0 | 6.0 | 0.00 | 0.00 | 0.00 | 83 | 1009.5 |
| 20260504220650 | 83 | 43 | 1.0 | 3.0 | 0.00 | 0.00 | 0.00 | 83 | 1009.5 |
| 20260504220148 | 83 | 46 | 2.0 | 4.0 | 0.00 | 0.00 | 0.00 | 83 | 1009.3 |
| 20260504215644 | 83 | 32 | 0.0 | 3.0 | 0.00 | 0.00 | 0.00 | 83 | 1009.4 |
| 20260504215142 | 83 | 56 | 2.0 | 6.0 | 0.00 | 0.00 | 0.00 | 83 | 1009.4 |
| 20260504214637 | 83 | 97 | 2.0 | 4.0 | 0.00 | 0.00 | 0.00 | 83 | 1009.2 |
| 20260504214134 | 83 | 130 | 3.0 | 6.0 | 0.00 | 0.00 | 0.00 | 83 | 1009.4 |
| 20260504213630 | 83 | 73 | 1.0 | 7.0 | 0.00 | 0.00 | 0.00 | 83 | 1009.3 |
| 20260504213127 | 83 | 45 | 3.0 | 6.0 | 0.00 | 0.00 | 0.00 | 83 | 1009.4 |
| 20260504212624 | 83 | 90 | 2.0 | 6.0 | 0.00 | 0.00 | 0.00 | 83 | 1009.5 |
| 20260504212120 | 83 | 100 | 2.0 | 4.0 | 0.00 | 0.00 | 0.00 | 83 | 1009.4 |
| 20260504211618 | 83 | 64 | 2.0 | 6.0 | 0.00 | 0.00 | 0.00 | 83 | 1009.4 |
| 20260504211114 | 83 | 55 | 3.0 | 6.0 | 0.00 | 0.00 | 0.00 | 83 | 1009.4 |
| 20260504210612 | 84 | 100 | 1.0 | 4.0 | 0.00 | 0.00 | 0.00 | 83 | 1009.4 |
| 20260504210108 | 84 | 47 | 1.0 | 4.0 | 0.00 | 0.00 | 0.00 | 83 | 1009.2 |
| 20260504205606 | 84 | 112 | 5.0 | 6.0 | 0.00 | 0.00 | 0.00 | 82 | 1009.4 |
| 20260504205103 | 84 | 126 | 2.0 | 6.0 | 0.00 | 0.00 | 0.00 | 83 | 1009.5 |
| 20260504204601 | 84 | 49 | 3.0 | 7.0 | 0.00 | 0.00 | 0.00 | 83 | 1009.4 |
| 20260504204100 | 84 | 160 | 5.0 | 7.0 | 0.00 | 0.00 | 0.00 | 83 | 1009.3 |
| 20260504203558 | 84 | 149 | 2.0 | 10.0 | 0.00 | 0.00 | 0.00 | 83 | 1009.3 |
| 20260504203055 | 84 | 52 | 1.0 | 4.0 | 0.00 | 0.00 | 0.00 | 83 | 1009.4 |
| 20260504202550 | 84 | 77 | 2.0 | 4.0 | 0.00 | 0.00 | 0.00 | 83 | 1009.4 |
| 20260504202048 | 84 | 28 | 1.0 | 3.0 | 0.00 | 0.00 | 0.00 | 83 | 1009.2 |
| 20260504201544 | 84 | 66 | 1.0 | 4.0 | 0.00 | 0.00 | 0.00 | 84 | 1009.4 |
| 20260504201043 | 84 | 28 | 2.0 | 6.0 | 0.00 | 0.00 | 0.00 | 84 | 1009.4 |
| 20260504200538 | 84 | 82 | 2.0 | 4.0 | 0.00 | 0.00 | 0.00 | 84 | 1009.3 |
| 20260504200036 | 84 | 87 | 1.0 | 4.0 | 0.00 | 0.00 | 0.00 | 84 | 1009.2 |
| 20260504195532 | 83 | 79 | 2.0 | 8.0 | 0.00 | 0.00 | 0.00 | 84 | 1009.2 |
| 20260504195028 | 83 | 67 | 2.0 | 9.0 | 0.00 | 0.00 | 0.00 | 84 | 1009.2 |
| 20260504194525 | 84 | 94 | 4.0 | 7.0 | 0.00 | 0.00 | 0.00 | 84 | 1009.1 |
| 20260504194020 | 84 | 93 | 9.0 | 10.0 | 0.00 | 0.00 | 0.00 | 84 | 1009.1 |
| 20260504193517 | 84 | 107 | 5.0 | 8.0 | 0.00 | 0.00 | 0.00 | 84 | 1009.3 |
| 20260504193017 | 84 | 143 | 2.0 | 8.0 | 0.00 | 0.00 | 0.00 | 84 | 1009.1 |
| 20260504192514 | 84 | 80 | 4.0 | 6.0 | 0.00 | 0.00 | 0.00 | 84 | 1009.0 |
| 20260504192012 | 84 | 54 | 7.0 | 8.0 | 0.00 | 0.00 | 0.00 | 84 | 1009.1 |
| 20260504191509 | 84 | 118 | 5.0 | 9.0 | 0.00 | 0.00 | 0.00 | 84 | 1008.9 |
| 20260504191005 | 84 | 90 | 3.0 | 8.0 | 0.00 | 0.00 | 0.00 | 84 | 1009.0 |
| 20260504190501 | 84 | 73 | 5.0 | 6.0 | 0.00 | 0.00 | 0.00 | 84 | 1009.0 |
| 20260504185957 | 84 | 67 | 9.0 | 10.0 | 0.00 | 0.00 | 0.00 | 84 | 1008.9 |
| 20260504185455 | 84 | 129 | 3.0 | 17.0 | 0.00 | 0.00 | 0.00 | 84 | 1009.0 |
| 20260504184951 | 84 | 60 | 5.0 | 7.0 | 0.00 | 0.00 | 0.00 | 84 | 1009.1 |
| 20260504184447 | 84 | 98 | 4.0 | 9.0 | 0.00 | 0.00 | 0.00 | 83 | 1009.1 |
| 20260504183942 | 84 | 53 | 1.0 | 11.0 | 0.00 | 0.00 | 0.00 | 83 | 1009.1 |
| 20260504183440 | 84 | 63 | 4.0 | 7.0 | 0.00 | 0.00 | 0.00 | 83 | 1009.2 |
| 20260504182938 | 84 | 86 | 6.0 | 11.0 | 0.00 | 0.00 | 0.00 | 83 | 1009.4 |
| 20260504182434 | 84 | 50 | 6.0 | 9.0 | 0.00 | 0.00 | 0.00 | 83 | 1009.4 |
| 20260504181932 | 84 | 101 | 10.0 | 14.0 | 0.00 | 0.00 | 0.00 | 83 | 1009.3 |
| 20260504181429 | 84 | 106 | 7.0 | 9.0 | 0.00 | 0.00 | 0.00 | 82 | 1009.2 |
| 20260504180927 | 84 | 68 | 4.0 | 9.0 | 0.00 | 0.00 | 0.00 | 82 | 1009.4 |
| 20260504180426 | 84 | 86 | 4.0 | 6.0 | 0.00 | 0.00 | 0.00 | 82 | 1009.7 |
| 20260504175924 | 84 | 112 | 1.0 | 6.0 | 0.00 | 0.00 | 0.00 | 82 | 1009.8 |
| 20260504175420 | 84 | 97 | 7.0 | 10.0 | 0.00 | 0.00 | 0.00 | 82 | 1009.8 |
| 20260504174918 | 84 | 99 | 4.0 | 10.0 | 0.00 | 0.00 | 0.00 | 82 | 1009.6 |
| 20260504174415 | 84 | 78 | 3.0 | 8.0 | 0.00 | 0.00 | 0.00 | 81 | 1009.7 |
| 20260504173913 | 85 | 55 | 3.0 | 9.0 | 0.00 | 0.00 | 0.00 | 81 | 1009.7 |
| 20260504173409 | 85 | 98 | 2.0 | 8.0 | 0.00 | 0.00 | 0.00 | 81 | 1009.8 |
| 20260504172907 | 85 | 113 | 4.0 | 6.0 | 0.00 | 0.00 | 0.00 | 81 | 1009.9 |
| 20260504172402 | 85 | 101 | 3.0 | 6.0 | 0.00 | 0.00 | 0.00 | 81 | 1009.9 |
| 20260504171859 | 85 | 98 | 6.0 | 8.0 | 0.00 | 0.00 | 0.00 | 81 | 1010.0 |
| 20260504171356 | 85 | 37 | 4.0 | 8.0 | 0.00 | 0.00 | 0.00 | 81 | 1009.9 |
| 20260504170853 | 85 | 93 | 6.0 | 10.0 | 0.00 | 0.00 | 0.00 | 81 | 1010.2 |
| 20260504170350 | 85 | 122 | 4.0 | 14.0 | 0.00 | 0.00 | 0.00 | 81 | 1010.4 |
| 20260504160308 | 86 | 132 | 4.0 | 11.0 | 0.00 | 0.00 | 0.00 | 80 | 1010.6 |
| 20260504150733 | 86 | 150 | 4.0 | 15.0 | 0.00 | 0.00 | 0.00 | 80 | 1011.0 |
| 20260504150230 | 86 | 227 | 3.0 | 10.0 | 0.00 | 0.00 | 0.00 | 80 | 1011.1 |